Theta_e
315 324 346 342 338 336 337 337 340 338 337 346 347 344 349 350 348 347 345 344 346 343 343 343 340 341 339 336 330 332 335 336 335 333 328 325 326 330 327 328 325 328 329
318 336 346 345 339 338 340 342 342 343 342 341 338 347 347 347 348 345 347 346 345 340 344 343 340 335 334 331 331 333 337 331 327 324 327 327 327 329 328 325 327 331 332
339 343 343 346 346 344 341 342 342 340 339 343 347 348 350 348 345 344 345 343 346 343 342 342 341 339 334 333 331 335 335 327 325 323 325 325 328 325 326 325 327 331 330
342 340 338 337 338 340 344 344 345 347 348 349 349 342 341 340 333 330 329 334 336 334 336 337 339 342 342 341 339 333 327 323 321 322 323 325 328 327 330 329 329 329 330
337 335 332 331 331 333 335 335 339 343 344 344 341 339 336 331 326 325 326 326 324 326 328 329 331 332 333 333 332 329 328 331 326 323 323 325 330 331 329 331 331 330 330
333 330 329 329 328 328 328 329 330 330 332 332 331 331 327 324 325 324 322 322 322 321 321 321 321 321 321 321 321 322 325 326 327 329 328 329 331 332 332 332 331 331 331
330 329 328 327 326 326 326 326 325 325 324 323 324 324 324 323 323 322 321 321 320 320 319 319 318 317 317 317 316 316 317 318 319 320 322 322 323 324 326 328 330 331 332
328 328 326 325 325 325 325 324 324 324 323 323 322 322 322 321 320 319 319 319 318 317 316 315 315 315 315 315 315 315 315 315 315 315 316 316 317 318 319 322 324 325 326
324 323 322 323 323 323 323 322 322 322 322 321 320 319 319 319 318 318 318 317 316 315 314 313 313 312 312 311 311 310 310 310 310 310 309 312 312 313 315 315 316 319 322
322 322 321 320 320 321 321 320 320 320 319 318 318 318 318 318 317 317 316 316 314 313 312 311 310 308 308 308 308 308 308 308 307 307 307 307 307 307 309 308 310 313 314
322 321 320 319 319 319 318 318 318 317 317 317 317 318 317 317 316 316 315 314 313 312 311 309 309 308 308 309 309 308 308 308 308 308 307 307 306 306 306 306 306 307 307
321 321 319 318 316 314 314 314 314 315 315 316 317 317 316 316 315 314 313 312 312 311 310 309 309 310 309 309 309 309 308 308 308 308 308 307 307 307 307 307 306 306 305
317 315 315 313 312 312 312 313 313 313 314 314 315 315 315 315 314 313 312 312 311 310 310 310 310 310 309 309 309 309 309 308 308 307 307 307 307 308 307 307 306 306 306
315 314 312 312 311 311 311 311 311 311 311 312 312 312 313 314 313 312 311 310 311 309 308 308 307 307 308 308 307 308 307 307 307 306 306 305 306 307 306 306 306 306 305
315 313 311 310 309 308 308 308 308 308 308 310 310 309 310 310 310 310 310 309 308 307 307 307 306 307 307 308 308 308 308 308 308 308 308 307 307 307 306 306 307 307 305
314 312 311 308 307 306 305 305 305 305 306 306 305 305 306 306 306 306 307 306 306 306 306 306 306 307 308 309 309 309 309 308 308 307 307 307 307 307 307 307 307 308 307
312 310 307 305 303 303 303 303 303 303 303 302 302 302 302 302 303 304 305 306 306 306 306 306 308 308 309 309 309 309 306 305 306 306 307 307 307 307 307 307 307 307 306
309 306 304 302 302 302 302 302 301 300 299 299 299 299 299 300 301 303 304 306 306 306 307 307 307 307 307 308 308 304 303 304 305 306 306 306 307 308 308 307 307 307 306
305 303 302 302 301 301 301 300 299 297 297 296 296 296 297 299 300 302 304 305 305 306 307 307 306 305 306 306 302 301 299 301 302 303 306 304 304 306 306 306 307 307 307
304 302 301 301 300 299 299 298 296 296 295 295 294 295 297 298 300 301 302 303 305 305 306 306 304 305 305 300 299 298 296 298 300 307 308 308 306 307 308 305 305 307 307
303 302 301 299 298 297 297 296 296 296 296 294 294 294 295 297 299 300 301 302 304 304 302 301 302 301 298 298 297 295 294 296 297 299 303 307 311 313 311 308 304 306 308
302 301 299 298 297 296 295 295 295 295 296 295 293 293 295 296 298 299 299 299 299 298 299 299 297 296 296 296 294 295 296 299 297 301 305 310 312 314 313 310 307 304 305
301 300 299 298 296 295 294 294 295 295 296 295 294 293 294 295 297 296 295 295 295 295 296 296 293 293 294 294 293 295 299 303 300 305 308 309 309 311 314 312 309 308 303
297 297 296 296 294 294 294 294 294 295 295 295 294 294 294 293 294 295 294 293 292 292 293 293 292 291 293 292 291 292 297 297 302 304 305 306 306 307 310 313 314 311 309
296 295 295 294 293 293 293 292 293 293 294 295 295 294 295 295 294 294 294 293 292 291 291 292 291 291 291 290 290 292 295 295 299 301 301 302 304 303 304 305 307 313 313
294 294 293 293 293 292 292 292 293 294 295 296 294 294 295 294 294 293 294 293 292 291 290 290 291 290 290 290 290 292 294 294 296 298 299 299 299 301 299 301 300 302 305
Wind_Speed
12 20 31 35 30 25 29 33 31 31 34 27 27 20 18 15 12 8 5 6 5 5 8 13 13 10 10 12 9 6 9 11 14 11 13 18 21 19 18 27 28 28 30
3 9 21 23 26 29 30 28 28 30 28 25 26 17 15 12 9 4 4 4 3 5 7 8 8 10 13 11 11 12 12 11 11 8 3 4 5 18 23 18 23 26 27
12 14 17 22 28 29 31 29 28 28 25 20 16 12 14 12 9 10 8 4 3 3 5 6 6 8 13 18 18 15 16 16 12 17 6 1 4 3 10 23 22 29 26
14 15 15 20 21 21 28 25 24 20 14 17 21 19 15 18 16 17 15 12 9 11 9 4 1 4 8 12 14 13 15 15 16 8 13 15 9 2 4 9 20 25 31
18 16 16 23 25 28 29 27 25 21 18 19 18 19 22 21 18 20 23 20 17 15 13 11 9 8 5 1 4 8 12 14 20 19 14 12 14 18 10 9 12 22 27
16 16 20 23 24 29 27 27 29 26 25 24 22 23 24 20 20 17 18 16 13 10 8 7 6 4 3 3 5 8 9 12 15 18 21 18 14 12 9 8 12 14 32
13 16 15 15 20 26 27 27 28 26 24 24 21 19 19 17 16 12 11 13 13 11 9 6 6 7 8 9 11 13 15 16 16 18 20 21 20 21 19 18 14 9 25
13 13 12 17 20 24 25 24 24 24 21 22 21 18 14 13 11 10 9 9 9 8 7 8 8 8 9 10 11 12 13 14 15 16 17 19 20 18 17 15 13 11 11
16 17 15 19 22 25 24 23 20 20 19 19 16 15 13 11 11 9 7 8 7 8 8 9 9 8 9 10 13 15 17 19 21 23 23 20 20 18 15 16 16 11 10
19 18 16 23 24 27 23 19 16 16 16 14 12 12 11 9 8 7 7 6 5 5 8 10 11 12 12 11 12 16 17 19 22 22 23 26 27 26 26 21 20 19 17
16 16 15 22 25 23 23 20 18 16 14 11 9 9 10 8 8 7 5 5 4 6 9 12 14 14 14 14 16 19 20 22 23 24 26 27 27 27 27 26 24 23 22
17 16 17 23 21 23 26 26 23 20 16 13 8 7 6 4 4 4 4 4 5 6 10 12 14 16 16 17 19 21 21 23 26 26 24 26 25 28 30 29 28 27 25
12 13 16 16 17 20 24 23 21 19 15 13 11 6 3 2 2 2 2 3 5 7 8 10 13 16 17 18 19 21 21 20 20 22 24 28 26 26 27 28 30 29 27
12 15 14 13 17 19 21 20 19 15 12 10 12 14 12 7 5 3 3 4 3 5 9 12 15 17 16 19 21 19 22 24 24 25 26 28 29 29 30 28 29 27 26
12 13 13 10 15 19 20 19 17 14 12 10 13 16 13 12 10 10 8 7 10 11 13 14 16 17 19 19 21 23 25 27 29 30 31 31 33 33 34 30 29 26 25
12 13 13 14 15 16 17 16 16 15 13 12 13 11 11 12 14 12 11 13 13 13 15 17 19 19 19 19 20 22 28 30 27 30 31 32 33 35 37 38 40 37 31
12 12 11 13 15 16 16 16 15 13 13 12 12 13 13 14 15 13 13 13 15 16 16 18 19 21 22 22 23 26 26 28 29 29 29 30 32 34 35 35 38 38 39
12 10 13 15 17 17 16 14 14 14 14 14 14 15 15 15 15 13 12 14 15 17 17 19 20 20 23 22 24 28 29 28 28 29 31 30 31 32 34 32 30 30 33
12 15 19 21 18 18 15 14 14 14 15 15 15 14 14 15 14 12 14 15 17 16 18 18 21 23 23 22 26 28 29 27 30 29 33 31 33 35 34 29 31 30 32
18 18 19 21 17 12 12 12 13 13 14 16 16 13 12 13 11 14 15 16 15 16 19 19 21 20 21 29 27 27 27 25 27 36 36 37 34 39 40 33 27 27 32
19 20 20 19 15 13 12 11 9 10 11 16 15 10 11 11 11 13 15 15 14 15 15 18 18 20 27 30 29 30 28 23 29 27 32 35 42 41 36 37 32 29 31
16 20 19 18 15 13 12 11 10 9 9 15 16 13 10 10 11 12 13 14 13 16 18 17 21 26 29 28 31 33 32 30 24 27 32 36 41 37 28 26 21 28 31
18 19 19 16 13 11 12 10 10 10 11 12 17 15 12 11 12 13 16 15 16 17 16 15 20 22 26 28 33 35 35 32 33 29 29 32 37 41 26 21 13 9 16
19 20 18 16 12 10 10 9 10 11 13 12 15 18 18 15 11 11 15 15 17 17 14 14 16 21 23 26 33 35 36 36 32 30 26 31 37 36 35 27 20 11 11
20 19 17 17 12 11 11 10 10 12 13 11 9 10 17 21 18 11 12 15 15 17 15 14 15 18 22 29 30 27 28 33 24 21 27 35 34 37 36 35 33 28 19
19 18 18 16 12 12 12 12 12 15 12 9 10 8 7 8 11 14 13 12 12 17 22 19 20 21 24 30 33 29 28 36 33 27 29 30 31 31 33 33 33 31 33
Wind_Direction
223 152 163 175 172 174 182 185 183 185 188 195 208 209 221 219 214 186 174 187 206 224 254 261 269 262 263 244 245 220 214 234 249 262 261 260 262 252 253 260 267 266 261
106 119 159 153 156 163 177 182 188 188 196 197 195 202 201 212 220 217 196 176 243 274 266 253 253 247 236 241 239 249 248 254 222 244 280 306 311 251 252 255 263 254 253
124 114 119 125 147 157 165 173 177 175 181 187 199 207 191 177 140 125 131 138 118 220 263 285 277 255 248 256 253 260 256 268 272 241 221 47 256 306 242 244 245 250 245
106 109 109 106 118 129 149 147 147 160 170 187 191 173 153 124 109 104 101 115 99 89 91 94 114 242 255 266 254 263 262 268 266 274 250 250 268 295 310 255 262 264 260
122 112 104 104 104 114 120 115 110 118 125 136 159 151 118 114 116 114 105 98 96 98 97 98 107 117 119 34 293 271 263 275 273 270 281 297 285 265 243 276 274 282 265
112 103 103 106 107 114 112 112 111 103 112 117 118 122 122 121 116 113 105 102 97 98 93 88 82 68 40 338 315 305 300 304 300 293 287 270 270 266 250 252 264 262 272
115 118 118 114 111 109 109 106 106 103 103 106 107 108 108 109 104 101 99 103 104 94 73 45 15 351 333 324 313 307 304 306 305 300 296 292 290 293 294 294 284 268 270
129 121 117 113 113 112 112 111 107 105 105 107 104 104 107 105 100 96 96 90 85 70 37 26 17 357 339 326 319 317 311 306 303 304 303 301 298 300 300 295 304 296 288
130 123 117 112 113 115 113 108 106 104 106 106 102 103 107 107 105 99 87 72 53 42 24 10 3 349 331 320 314 309 303 300 298 298 299 299 300 301 297 302 298 279 290
127 122 119 114 111 113 111 109 109 109 107 103 99 106 109 107 99 95 82 64 53 38 11 356 343 336 327 322 318 318 307 301 301 298 299 294 295 296 295 298 297 287 290
132 130 124 110 113 114 106 103 101 97 93 96 104 115 119 114 108 93 58 32 11 355 350 352 343 336 328 319 303 305 300 289 287 289 290 290 292 291 289 292 283 279 280
136 140 113 111 109 103 94 89 82 75 66 67 83 104 109 97 77 32 23 355 340 337 331 337 333 330 323 315 307 306 303 293 292 285 283 284 286 282 285 285 280 276 278
107 103 97 105 106 99 92 87 78 69 60 52 49 50 39 13 343 326 317 323 318 328 336 328 325 322 316 314 311 305 301 299 293 290 286 285 283 273 274 278 276 277 279
97 105 102 103 102 94 87 80 68 56 44 31 23 13 350 320 299 280 297 347 36 12 340 331 328 326 322 320 317 310 307 306 305 299 293 288 278 270 270 270 266 264 266
120 115 109 101 93 84 78 69 58 46 33 24 17 16 26 36 49 52 61 31 2 350 340 331 329 328 325 329 322 321 316 309 306 305 299 290 284 277 271 262 263 263 264
125 108 98 90 81 77 73 65 51 41 38 33 35 21 16 20 26 24 5 354 349 342 337 333 328 327 328 330 332 330 318 305 294 294 291 286 280 273 266 262 257 254 258
114 102 94 89 88 80 69 59 51 40 40 27 12 358 349 347 353 351 348 348 343 338 334 334 336 334 331 334 335 329 325 314 301 290 286 284 280 276 265 259 259 258 258
108 100 102 96 85 73 66 59 44 34 21 9 358 354 342 340 339 340 342 339 338 333 334 339 340 332 333 345 341 328 324 317 307 298 290 287 286 284 273 256 251 249 251
113 113 106 93 80 68 61 56 40 27 19 6 353 343 343 341 337 339 334 328 329 329 328 333 337 337 338 341 339 333 330 316 309 312 314 302 292 297 289 278 248 246 250
107 106 103 86 82 80 72 60 42 28 14 355 346 342 341 335 341 337 329 328 323 324 332 332 336 344 336 339 338 334 334 316 320 332 335 331 315 311 308 289 268 246 248
117 116 109 107 98 84 76 63 39 23 2 359 357 349 341 334 335 340 349 347 348 347 353 344 353 346 344 343 339 339 337 324 320 317 320 322 326 331 320 300 269 254 253
124 126 119 112 99 86 73 62 39 19 9 5 9 6 3 1 351 5 347 350 356 355 353 354 354 352 349 345 338 349 352 354 333 323 324 332 339 333 333 327 304 272 262
114 119 116 118 110 91 63 63 42 28 21 14 22 16 15 13 21 15 9 19 12 7 357 8 353 343 351 344 346 352 2 3 349 347 343 345 355 356 345 351 342 332 266
103 110 105 114 107 88 64 50 30 14 17 23 34 33 27 18 16 26 22 27 21 9 353 5 352 351 349 348 350 353 2 355 5 358 349 2 7 3 1 345 340 318 274
98 93 88 102 91 72 59 34 19 4 356 351 5 31 48 40 38 46 34 35 37 33 24 9 0 358 352 349 354 359 5 3 358 4 16 14 8 3 357 355 355 343 302
97 91 89 90 77 61 35 24 19 16 16 359 351 345 358 24 32 36 41 47 43 38 36 35 26 17 19 12 14 18 24 22 21 24 24 12 6 5 355 352 349 348 347